Terminal Aerodrome Forecast
Issued by NWS Sioux Falls, SD

Home | Current Version | Previous Version | Text Only | Print | Product List | Glossary On
Versions: 1 2 3 4 5 6 7 8 9 10 11 12 13 14 15 16 17 18 19 20 21 22 23 24 25
000
FTUS43 KFSD 161348 AAB
TAFFSD
TAF AMD
KFSD 161348Z 1614/1712 34014G21KT P6SM SCT015
      TEMPO 1614/1617 BKN015
     FM161900 33014KT P6SM SCT018
     FM170000 35004KT P6SM SKC=

USA.gov is the U.S. government's official web portal to all federal, state and local government web resources and services.